| time (UTC) | temp F | wind direction | speed MPH | gust MPH | rain 1hr in | rain 24hr in | rain mn in | humidity % | barometer mb |
| 20260906185209 | 70 | 276 | 2.0 | 2.0 | 0.00 | 0.00 | 0.00 | 86 | 1016.8 |
| 20260906184703 | 70 | 312 | 2.0 | 3.0 | 0.00 | 0.00 | 0.00 | 86 | 1016.8 |
| 20260906184159 | 70 | 346 | 0.0 | 1.0 | 0.00 | 0.00 | 0.00 | 86 | 1017.2 |
| 20260906183655 | 70 | 0 | 0.0 | 0.0 | 0.00 | 0.00 | 0.00 | 87 | 1017.2 |
| 20260906183151 | 71 | 340 | 0.0 | 1.0 | 0.00 | 0.00 | 0.00 | 87 | 1017.2 |
| 20260906182650 | 71 | 2 | 1.0 | 2.0 | 0.00 | 0.00 | 0.00 | 88 | 1017.2 |
| 20260906182146 | 71 | 153 | 2.0 | 2.0 | 0.00 | 0.00 | 0.00 | 88 | 1017.2 |
| 20260906181642 | 72 | 315 | 0.0 | 0.0 | 0.00 | 0.00 | 0.00 | 89 | 1017.5 |
| 20260906181138 | 71 | 306 | 0.0 | 0.0 | 0.00 | 0.00 | 0.00 | 90 | 1017.2 |
| 20260906180633 | 72 | 21 | 1.0 | 1.0 | 0.00 | 0.00 | 0.00 | 92 | 1017.5 |
| 20260906180133 | 74 | 91 | 1.0 | 2.0 | 0.00 | 0.00 | 0.00 | 93 | 1017.9 |
| 20260906175631 | 74 | 159 | 3.0 | 5.0 | 0.00 | 0.00 | 0.00 | 93 | 1017.9 |
| 20260906175126 | 74 | 191 | 1.0 | 1.0 | 0.00 | 0.00 | 0.00 | 92 | 1018.3 |
| 20260906174624 | 74 | 229 | 0.0 | 0.0 | 0.00 | 0.00 | 0.00 | 90 | 1018.3 |
| 20260906174119 | 74 | 121 | 3.0 | 5.0 | 0.00 | 0.00 | 0.00 | 89 | 1017.5 |
| 20260906173615 | 73 | 154 | 3.0 | 3.0 | 0.00 | 0.00 | 0.00 | 90 | 1017.2 |
| 20260906173110 | 74 | 143 | 4.0 | 6.0 | 0.00 | 0.00 | 0.00 | 91 | 1017.5 |
| 20260906172609 | 74 | 159 | 5.0 | 6.0 | 0.00 | 0.00 | 0.00 | 91 | 1017.2 |
| 20260906172106 | 74 | 136 | 7.0 | 9.0 | 0.00 | 0.00 | 0.00 | 91 | 1017.2 |
| 20260906171605 | 75 | 123 | 6.0 | 8.0 | 0.00 | 0.00 | 0.00 | 89 | 1017.2 |
| 20260906171101 | 75 | 115 | 5.0 | 6.0 | 0.00 | 0.00 | 0.00 | 87 | 1017.2 |
| 20260906170556 | 75 | 107 | 3.0 | 3.0 | 0.00 | 0.00 | 0.00 | 87 | 1017.5 |
| 20260906170055 | 75 | 62 | 1.0 | 2.0 | 0.00 | 0.00 | 0.00 | 89 | 1017.5 |
| 20260906165553 | 76 | 180 | 2.0 | 2.0 | 0.00 | 0.00 | 0.00 | 91 | 1017.5 |
| 20260906165053 | 76 | 229 | 5.0 | 8.0 | 0.00 | 0.00 | 0.00 | 91 | 1017.5 |
| 20260906164552 | 77 | 138 | 9.0 | 11.0 | 0.00 | 0.00 | 0.00 | 90 | 1017.2 |
| 20260906164048 | 77 | 134 | 7.0 | 10.0 | 0.00 | 0.00 | 0.00 | 89 | 1017.5 |
| 20260906163543 | 77 | 148 | 2.0 | 2.0 | 0.00 | 0.00 | 0.00 | 90 | 1017.5 |
| 20260906163039 | 77 | 142 | 10.0 | 13.0 | 0.00 | 0.00 | 0.00 | 90 | 1017.5 |
| 20260906162536 | 77 | 124 | 4.0 | 5.0 | 0.00 | 0.00 | 0.00 | 90 | 1017.2 |
| 20260906162031 | 77 | 136 | 6.0 | 7.0 | 0.00 | 0.00 | 0.00 | 90 | 1017.2 |
| 20260906161526 | 77 | 165 | 4.0 | 6.0 | 0.00 | 0.00 | 0.00 | 89 | 1017.2 |
| 20260906161025 | 77 | 136 | 4.0 | 7.0 | 0.00 | 0.00 | 0.00 | 89 | 1017.2 |
| 20260906160524 | 78 | 160 | 3.0 | 5.0 | 0.00 | 0.00 | 0.00 | 89 | 1017.2 |
| 20260906160023 | 78 | 115 | 2.0 | 3.0 | 0.00 | 0.00 | 0.00 | 89 | 1016.8 |
| 20260906155520 | 77 | 137 | 2.0 | 2.0 | 0.00 | 0.00 | 0.00 | 89 | 1016.5 |
| 20260906155017 | 77 | 146 | 6.0 | 9.0 | 0.00 | 0.00 | 0.00 | 89 | 1016.5 |
| 20260906154512 | 77 | 161 | 4.0 | 5.0 | 0.00 | 0.00 | 0.00 | 90 | 1016.8 |
| 20260906154010 | 77 | 114 | 1.0 | 1.0 | 0.00 | 0.00 | 0.00 | 90 | 1016.8 |
| 20260906153509 | 77 | 150 | 6.0 | 8.0 | 0.00 | 0.00 | 0.00 | 90 | 1016.8 |
| 20260906153005 | 77 | 154 | 6.0 | 7.0 | 0.00 | 0.00 | 0.00 | 91 | 1016.8 |
| 20260906152505 | 76 | 167 | 3.0 | 3.0 | 0.00 | 0.00 | 0.00 | 91 | 1016.8 |
| 20260906152004 | 76 | 158 | 3.0 | 3.0 | 0.00 | 0.00 | 0.00 | 91 | 1017.2 |
| 20260906151500 | 76 | 188 | 5.0 | 6.0 | 0.00 | 0.00 | 0.00 | 92 | 1017.2 |
| 20260906150955 | 76 | 122 | 4.0 | 6.0 | 0.00 | 0.00 | 0.00 | 92 | 1017.2 |
| 20260906150450 | 76 | 178 | 5.0 | 6.0 | 0.00 | 0.00 | 0.00 | 92 | 1017.2 |
| 20260906145949 | 76 | 164 | 5.0 | 6.0 | 0.00 | 0.00 | 0.00 | 92 | 1017.2 |
| 20260906145444 | 76 | 178 | 7.0 | 8.0 | 0.00 | 0.00 | 0.00 | 93 | 1016.8 |
| 20260906144944 | 75 | 107 | 2.0 | 5.0 | 0.00 | 0.00 | 0.00 | 93 | 1016.8 |
| 20260906144438 | 75 | 115 | 6.0 | 8.0 | 0.00 | 0.00 | 0.00 | 93 | 1016.8 |
| 20260906143934 | 75 | 156 | 5.0 | 7.0 | 0.00 | 0.00 | 0.00 | 94 | 1016.5 |
| 20260906143430 | 75 | 132 | 4.0 | 6.0 | 0.00 | 0.00 | 0.00 | 94 | 1016.8 |
| 20260906142926 | 75 | 133 | 6.0 | 7.0 | 0.00 | 0.00 | 0.00 | 94 | 1016.8 |
| 20260906142425 | 75 | 128 | 3.0 | 5.0 | 0.00 | 0.00 | 0.00 | 94 | 1016.8 |
| 20260906141920 | 75 | 156 | 3.0 | 3.0 | 0.00 | 0.00 | 0.00 | 94 | 1016.8 |
| 20260906141420 | 75 | 144 | 6.0 | 8.0 | 0.00 | 0.00 | 0.00 | 94 | 1016.5 |
| 20260906140914 | 75 | 171 | 5.0 | 6.0 | 0.00 | 0.00 | 0.00 | 94 | 1016.5 |
| 20260906140409 | 75 | 142 | 5.0 | 7.0 | 0.00 | 0.00 | 0.00 | 94 | 1016.8 |
| 20260906135907 | 74 | 150 | 5.0 | 7.0 | 0.00 | 0.00 | 0.00 | 94 | 1016.5 |
| 20260906135406 | 74 | 148 | 3.0 | 3.0 | 0.00 | 0.00 | 0.00 | 95 | 1017.2 |
| 20260906134902 | 74 | 150 | 3.0 | 5.0 | 0.00 | 0.00 | 0.00 | 95 | 1016.8 |
| 20260906134357 | 74 | 139 | 6.0 | 7.0 | 0.00 | 0.00 | 0.00 | 95 | 1017.2 |
| 20260906133852 | 74 | 152 | 7.0 | 8.0 | 0.00 | 0.00 | 0.00 | 95 | 1017.2 |
| 20260906133348 | 74 | 150 | 2.0 | 2.0 | 0.00 | 0.00 | 0.00 | 95 | 1017.2 |
| 20260906132844 | 74 | 147 | 3.0 | 3.0 | 0.00 | 0.00 | 0.00 | 95 | 1016.8 |
| 20260906132344 | 74 | 169 | 5.0 | 7.0 | 0.00 | 0.00 | 0.00 | 95 | 1017.2 |
| 20260906131840 | 74 | 114 | 3.0 | 6.0 | 0.00 | 0.00 | 0.00 | 95 | 1016.8 |
| 20260906131335 | 73 | 155 | 7.0 | 8.0 | 0.00 | 0.00 | 0.00 | 95 | 1016.8 |
| 20260906130831 | 73 | 147 | 6.0 | 9.0 | 0.00 | 0.00 | 0.00 | 96 | 1016.8 |
| 20260906130330 | 73 | 133 | 3.0 | 5.0 | 0.00 | 0.00 | 0.00 | 96 | 1016.5 |
| 20260906125829 | 73 | 101 | 3.0 | 5.0 | 0.00 | 0.00 | 0.00 | 96 | 1016.5 |
| 20260906125326 | 73 | 134 | 3.0 | 5.0 | 0.00 | 0.00 | 0.00 | 96 | 1016.8 |
| 20260906124821 | 73 | 143 | 4.0 | 5.0 | 0.00 | 0.00 | 0.00 | 96 | 1016.5 |
| 20260906124318 | 73 | 120 | 5.0 | 6.0 | 0.00 | 0.00 | 0.00 | 96 | 1016.8 |
| 20260906123816 | 73 | 164 | 5.0 | 6.0 | 0.00 | 0.00 | 0.00 | 96 | 1016.8 |
| 20260906123311 | 73 | 173 | 3.0 | 3.0 | 0.00 | 0.00 | 0.00 | 96 | 1016.8 |
| 20260906122811 | 73 | 172 | 4.0 | 5.0 | 0.00 | 0.00 | 0.00 | 96 | 1016.8 |
| 20260906122306 | 73 | 158 | 5.0 | 6.0 | 0.00 | 0.00 | 0.00 | 96 | 1016.5 |
| 20260906121803 | 73 | 141 | 3.0 | 3.0 | 0.00 | 0.00 | 0.00 | 96 | 1016.5 |
| 20260906121259 | 73 | 152 | 4.0 | 5.0 | 0.00 | 0.00 | 0.00 | 96 | 1016.5 |
| 20260906120755 | 73 | 120 | 6.0 | 7.0 | 0.00 | 0.00 | 0.00 | 96 | 1016.1 |
| 20260906120251 | 73 | 108 | 7.0 | 8.0 | 0.00 | 0.00 | 0.00 | 96 | 1016.5 |
| 20260906115747 | 72 | 144 | 5.0 | 7.0 | 0.00 | 0.00 | 0.00 | 96 | 1016.5 |
| 20260906115241 | 72 | 126 | 6.0 | 7.0 | 0.00 | 0.00 | 0.00 | 96 | 1016.1 |
| 20260906114740 | 72 | 103 | 6.0 | 8.0 | 0.00 | 0.00 | 0.00 | 96 | 1016.1 |
| 20260906114236 | 72 | 113 | 3.0 | 5.0 | 0.00 | 0.00 | 0.00 | 97 | 1016.1 |
| 20260906113731 | 72 | 117 | 4.0 | 5.0 | 0.00 | 0.00 | 0.00 | 97 | 1016.1 |
| 20260906113231 | 72 | 134 | 4.0 | 5.0 | 0.00 | 0.00 | 0.00 | 97 | 1016.5 |
| 20260906112730 | 72 | 100 | 4.0 | 6.0 | 0.00 | 0.00 | 0.00 | 97 | 1016.5 |
| 20260906112227 | 72 | 155 | 5.0 | 6.0 | 0.00 | 0.00 | 0.00 | 97 | 1016.1 |
| 20260906111726 | 72 | 100 | 5.0 | 6.0 | 0.00 | 0.00 | 0.00 | 97 | 1015.8 |
| 20260906111221 | 72 | 110 | 5.0 | 7.0 | 0.00 | 0.00 | 0.00 | 97 | 1016.5 |
| 20260906110716 | 72 | 155 | 3.0 | 3.0 | 0.00 | 0.00 | 0.00 | 97 | 1016.5 |
| 20260906110212 | 72 | 115 | 4.0 | 5.0 | 0.00 | 0.00 | 0.00 | 97 | 1016.1 |
| 20260906105711 | 72 | 153 | 3.0 | 5.0 | 0.00 | 0.00 | 0.00 | 97 | 1016.1 |
| 20260906105208 | 72 | 136 | 4.0 | 6.0 | 0.00 | 0.00 | 0.00 | 97 | 1016.5 |
| 20260906104707 | 72 | 162 | 4.0 | 6.0 | 0.00 | 0.00 | 0.00 | 97 | 1016.5 |
| 20260906104207 | 72 | 93 | 3.0 | 3.0 | 0.00 | 0.00 | 0.00 | 97 | 1016.1 |
| 20260906103704 | 72 | 136 | 4.0 | 5.0 | 0.00 | 0.00 | 0.00 | 97 | 1016.1 |
| 20260906103159 | 72 | 134 | 4.0 | 5.0 | 0.00 | 0.00 | 0.00 | 97 | 1016.1 |
| 20260906102655 | 72 | 148 | 4.0 | 5.0 | 0.00 | 0.00 | 0.00 | 97 | 1016.1 |
| 20260906102154 | 72 | 141 | 5.0 | 6.0 | 0.00 | 0.00 | 0.00 | 97 | 1016.5 |
| 20260906101653 | 72 | 121 | 6.0 | 8.0 | 0.00 | 0.00 | 0.00 | 97 | 1016.1 |
| 20260906101148 | 72 | 117 | 3.0 | 3.0 | 0.00 | 0.00 | 0.00 | 97 | 1016.5 |
| 20260906100645 | 72 | 132 | 5.0 | 6.0 | 0.00 | 0.00 | 0.00 | 97 | 1016.5 |
| 20260906100145 | 72 | 166 | 5.0 | 6.0 | 0.00 | 0.00 | 0.00 | 97 | 1016.5 |
| 20260906095640 | 72 | 126 | 5.0 | 6.0 | 0.00 | 0.00 | 0.00 | 97 | 1016.1 |
| 20260906095135 | 72 | 149 | 6.0 | 7.0 | 0.00 | 0.00 | 0.00 | 97 | 1016.5 |
| 20260906094634 | 72 | 137 | 4.0 | 5.0 | 0.00 | 0.00 | 0.00 | 97 | 1016.5 |
| 20260906094130 | 72 | 143 | 3.0 | 3.0 | 0.00 | 0.00 | 0.00 | 97 | 1016.8 |
| 20260906093626 | 72 | 153 | 3.0 | 6.0 | 0.00 | 0.00 | 0.00 | 97 | 1016.8 |
| 20260906093125 | 72 | 136 | 3.0 | 5.0 | 0.00 | 0.00 | 0.00 | 97 | 1016.8 |
| 20260906092620 | 72 | 139 | 6.0 | 8.0 | 0.00 | 0.00 | 0.00 | 97 | 1016.5 |
| 20260906092116 | 72 | 140 | 7.0 | 8.0 | 0.00 | 0.00 | 0.00 | 97 | 1016.5 |
| 20260906091612 | 72 | 126 | 5.0 | 6.0 | 0.00 | 0.00 | 0.00 | 97 | 1016.1 |
| 20260906091108 | 72 | 172 | 6.0 | 7.0 | 0.00 | 0.00 | 0.00 | 97 | 1016.1 |
| 20260906090609 | 72 | 143 | 8.0 | 10.0 | 0.00 | 0.00 | 0.00 | 97 | 1016.1 |
| 20260906090108 | 72 | 146 | 5.0 | 7.0 | 0.00 | 0.00 | 0.00 | 97 | 1016.1 |
| 20260906085608 | 72 | 129 | 7.0 | 8.0 | 0.00 | 0.00 | 0.00 | 97 | 1015.8 |
| 20260906085102 | 72 | 121 | 5.0 | 6.0 | 0.00 | 0.00 | 0.00 | 97 | 1016.1 |
| 20260906084557 | 72 | 115 | 6.0 | 7.0 | 0.00 | 0.00 | 0.00 | 97 | 1016.1 |
| 20260906084055 | 72 | 162 | 5.0 | 6.0 | 0.00 | 0.00 | 0.00 | 98 | 1015.8 |
| 20260906083551 | 72 | 172 | 4.0 | 5.0 | 0.00 | 0.00 | 0.00 | 98 | 1015.8 |
| 20260906083051 | 72 | 164 | 6.0 | 7.0 | 0.00 | 0.00 | 0.00 | 98 | 1015.8 |
| 20260906082546 | 72 | 109 | 5.0 | 6.0 | 0.00 | 0.00 | 0.00 | 98 | 1015.8 |
| 20260906082042 | 73 | 174 | 5.0 | 6.0 | 0.00 | 0.00 | 0.00 | 98 | 1015.8 |
| 20260906081538 | 73 | 161 | 4.0 | 5.0 | 0.00 | 0.00 | 0.00 | 98 | 1016.1 |
| 20260906081033 | 73 | 121 | 3.0 | 3.0 | 0.00 | 0.00 | 0.00 | 98 | 1015.8 |
| 20260906080530 | 73 | 173 | 7.0 | 9.0 | 0.00 | 0.00 | 0.00 | 98 | 1015.8 |
| 20260906080026 | 73 | 104 | 6.0 | 7.0 | 0.00 | 0.00 | 0.00 | 98 | 1016.1 |
| 20260906075525 | 73 | 120 | 6.0 | 7.0 | 0.00 | 0.00 | 0.00 | 98 | 1015.8 |
| 20260906075020 | 73 | 106 | 7.0 | 8.0 | 0.00 | 0.00 | 0.00 | 98 | 1015.5 |
| 20260906074515 | 73 | 158 | 6.0 | 8.0 | 0.00 | 0.00 | 0.00 | 98 | 1015.8 |
| 20260906074013 | 73 | 130 | 7.0 | 8.0 | 0.00 | 0.00 | 0.00 | 98 | 1015.5 |
| 20260906073508 | 74 | 125 | 6.0 | 7.0 | 0.00 | 0.00 | 0.00 | 98 | 1015.8 |
| 20260906073004 | 74 | 126 | 6.0 | 7.0 | 0.00 | 0.00 | 0.00 | 98 | 1015.8 |
| 20260906072459 | 74 | 161 | 5.0 | 7.0 | 0.00 | 0.00 | 0.00 | 98 | 1015.8 |
| 20260906071955 | 74 | 122 | 4.0 | 5.0 | 0.00 | 0.00 | 0.00 | 98 | 1015.8 |
| 20260906071451 | 74 | 132 | 6.0 | 7.0 | 0.00 | 0.00 | 0.00 | 98 | 1016.1 |
| 20260906070946 | 74 | 135 | 5.0 | 7.0 | 0.00 | 0.00 | 0.00 | 98 | 1015.8 |
| 20260906070443 | 74 | 111 | 5.0 | 6.0 | 0.00 | 0.00 | 0.00 | 98 | 1016.1 |
| 20260906065938 | 74 | 113 | 6.0 | 7.0 | 0.00 | 0.00 | 0.00 | 98 | 1015.5 |
| 20260906065437 | 74 | 125 | 5.0 | 6.0 | 0.00 | 0.00 | 0.00 | 98 | 1015.8 |
| 20260906064933 | 74 | 97 | 5.0 | 6.0 | 0.00 | 0.00 | 0.00 | 98 | 1016.1 |
| 20260906064430 | 74 | 166 | 7.0 | 9.0 | 0.00 | 0.00 | 0.00 | 98 | 1015.8 |
| 20260906063930 | 74 | 144 | 7.0 | 8.0 | 0.00 | 0.00 | 0.00 | 98 | 1016.1 |
| 20260906063425 | 74 | 116 | 5.0 | 7.0 | 0.00 | 0.00 | 0.00 | 98 | 1016.1 |
| 20260906062920 | 74 | 113 | 5.0 | 7.0 | 0.00 | 0.00 | 0.00 | 98 | 1016.1 |
| 20260906062421 | 74 | 144 | 4.0 | 6.0 | 0.00 | 0.00 | 0.00 | 97 | 1016.1 |
| 20260906061916 | 74 | 111 | 4.0 | 5.0 | 0.00 | 0.00 | 0.00 | 97 | 1016.5 |
| 20260906061412 | 74 | 96 | 4.0 | 5.0 | 0.00 | 0.00 | 0.00 | 97 | 1016.5 |
| 20260906060906 | 74 | 133 | 3.0 | 3.0 | 0.00 | 0.00 | 0.00 | 97 | 1016.5 |
| 20260906060403 | 74 | 137 | 4.0 | 6.0 | 0.00 | 0.00 | 0.00 | 97 | 1016.1 |
| 20260906055859 | 74 | 121 | 5.0 | 6.0 | 0.00 | 0.00 | 0.00 | 97 | 1016.1 |
| 20260906055355 | 74 | 134 | 5.0 | 6.0 | 0.00 | 0.00 | 0.00 | 97 | 1016.1 |
| 20260906054850 | 74 | 122 | 4.0 | 5.0 | 0.00 | 0.00 | 0.00 | 97 | 1016.1 |
| 20260906054344 | 74 | 143 | 1.0 | 2.0 | 0.00 | 0.00 | 0.00 | 96 | 1016.5 |
| 20260906053841 | 74 | 115 | 3.0 | 5.0 | 0.00 | 0.00 | 0.00 | 96 | 1016.5 |
| 20260906053336 | 73 | 121 | 3.0 | 3.0 | 0.00 | 0.00 | 0.00 | 96 | 1016.1 |
| 20260906052832 | 73 | 118 | 3.0 | 3.0 | 0.00 | 0.00 | 0.00 | 96 | 1016.5 |
| 20260906052328 | 73 | 133 | 4.0 | 5.0 | 0.00 | 0.00 | 0.00 | 96 | 1016.5 |
| 20260906051825 | 73 | 126 | 4.0 | 6.0 | 0.00 | 0.00 | 0.00 | 96 | 1016.5 |
| 20260906051324 | 73 | 121 | 3.0 | 3.0 | 0.00 | 0.00 | 0.00 | 95 | 1016.5 |
| 20260906050820 | 73 | 109 | 0.0 | 0.0 | 0.00 | 0.00 | 0.00 | 95 | 1016.5 |
| 20260906050315 | 73 | 105 | 0.0 | 0.0 | 0.00 | 0.00 | 0.00 | 95 | 1016.5 |
| 20260906045814 | 73 | 65 | 0.0 | 0.0 | 0.00 | 0.03 | 0.03 | 94 | 1016.5 |
| 20260906045308 | 73 | 84 | 0.0 | 0.0 | 0.00 | 0.03 | 0.03 | 94 | 1016.5 |
| 20260906044805 | 73 | 63 | 0.0 | 0.0 | 0.00 | 0.03 | 0.03 | 93 | 1016.5 |
| 20260906044259 | 73 | 79 | 0.0 | 0.0 | 0.00 | 0.03 | 0.03 | 93 | 1016.1 |
| 20260906043755 | 73 | 83 | 0.0 | 0.0 | 0.00 | 0.03 | 0.03 | 93 | 1016.1 |
| 20260906043251 | 73 | 65 | 0.0 | 0.0 | 0.00 | 0.03 | 0.03 | 92 | 1016.1 |
| 20260906042751 | 74 | 86 | 0.0 | 0.0 | 0.00 | 0.03 | 0.03 | 92 | 1016.1 |
| 20260906042250 | 74 | 58 | 0.0 | 0.0 | 0.00 | 0.03 | 0.03 | 92 | 1016.5 |
| 20260906041745 | 74 | 61 | 0.0 | 0.0 | 0.00 | 0.03 | 0.03 | 91 | 1016.1 |
| 20260906041240 | 74 | 120 | 0.0 | 0.0 | 0.00 | 0.03 | 0.03 | 91 | 1016.5 |
| 20260906040736 | 74 | 65 | 0.0 | 0.0 | 0.00 | 0.03 | 0.03 | 91 | 1016.1 |
| 20260906040231 | 74 | 52 | 0.0 | 0.0 | 0.00 | 0.03 | 0.03 | 91 | 1016.1 |
| 20260906035727 | 74 | 56 | 0.0 | 0.0 | 0.00 | 0.03 | 0.03 | 91 | 1015.8 |
| 20260906035222 | 74 | 106 | 0.0 | 0.0 | 0.00 | 0.03 | 0.03 | 90 | 1016.1 |
| 20260906034722 | 74 | 47 | 0.0 | 0.0 | 0.00 | 0.03 | 0.03 | 90 | 1016.1 |
| 20260906034217 | 74 | 45 | 0.0 | 0.0 | 0.00 | 0.03 | 0.03 | 90 | 1015.8 |
| 20260906033713 | 74 | 63 | 0.0 | 0.0 | 0.00 | 0.03 | 0.03 | 90 | 1015.8 |
| 20260906033212 | 74 | 89 | 1.0 | 1.0 | 0.00 | 0.03 | 0.03 | 90 | 1015.8 |
| 20260906032710 | 75 | 109 | 2.0 | 2.0 | 0.00 | 0.03 | 0.03 | 89 | 1015.5 |
| 20260906032209 | 75 | 125 | 2.0 | 2.0 | 0.00 | 0.03 | 0.03 | 89 | 1015.8 |
| 20260906031704 | 75 | 96 | 0.0 | 0.0 | 0.00 | 0.03 | 0.03 | 89 | 1015.8 |
| 20260906031159 | 75 | 109 | 3.0 | 3.0 | 0.00 | 0.03 | 0.03 | 88 | 1015.8 |
| 20260906030659 | 75 | 105 | 0.0 | 0.0 | 0.00 | 0.03 | 0.03 | 88 | 1015.8 |
| 20260906030154 | 75 | 99 | 3.0 | 5.0 | 0.00 | 0.03 | 0.03 | 87 | 1015.5 |
| 20260906025654 | 75 | 156 | 3.0 | 3.0 | 0.00 | 0.03 | 0.03 | 87 | 1015.5 |
| 20260906025154 | 76 | 134 | 3.0 | 5.0 | 0.00 | 0.03 | 0.03 | 86 | 1015.5 |
| 20260906024648 | 76 | 127 | 3.0 | 3.0 | 0.00 | 0.03 | 0.03 | 86 | 1015.5 |
| 20260906024147 | 76 | 151 | 3.0 | 3.0 | 0.00 | 0.03 | 0.03 | 85 | 1015.5 |
| 20260906023644 | 76 | 151 | 3.0 | 5.0 | 0.00 | 0.03 | 0.03 | 85 | 1015.5 |
| 20260906023143 | 76 | 147 | 3.0 | 3.0 | 0.00 | 0.03 | 0.03 | 84 | 1015.5 |
| 20260906022638 | 77 | 127 | 5.0 | 6.0 | 0.00 | 0.03 | 0.03 | 84 | 1015.5 |
| 20260906022134 | 77 | 134 | 3.0 | 3.0 | 0.00 | 0.03 | 0.03 | 84 | 1015.5 |
| 20260906021630 | 77 | 137 | 2.0 | 3.0 | 0.00 | 0.03 | 0.03 | 83 | 1015.5 |
| 20260906021129 | 77 | 121 | 3.0 | 3.0 | 0.00 | 0.03 | 0.03 | 83 | 1015.5 |
| 20260906020629 | 77 | 138 | 5.0 | 7.0 | 0.00 | 0.03 | 0.03 | 82 | 1015.5 |
| 20260906020124 | 77 | 163 | 3.0 | 3.0 | 0.00 | 0.03 | 0.03 | 82 | 1015.5 |
| 20260906015618 | 78 | 109 | 9.0 | 11.0 | 0.00 | 0.03 | 0.03 | 81 | 1015.1 |
| 20260906015117 | 78 | 135 | 6.0 | 8.0 | 0.00 | 0.03 | 0.03 | 81 | 1015.5 |
| 20260906014611 | 78 | 156 | 7.0 | 8.0 | 0.00 | 0.03 | 0.03 | 80 | 1015.5 |
| 20260906014108 | 78 | 105 | 4.0 | 5.0 | 0.00 | 0.03 | 0.03 | 80 | 1015.5 |
| 20260906013603 | 78 | 148 | 4.0 | 6.0 | 0.00 | 0.03 | 0.03 | 79 | 1015.5 |
| 20260906013058 | 78 | 97 | 4.0 | 6.0 | 0.00 | 0.03 | 0.03 | 78 | 1015.5 |
| 20260906012553 | 79 | 159 | 4.0 | 5.0 | 0.00 | 0.03 | 0.03 | 78 | 1015.1 |
| 20260906012053 | 79 | 146 | 3.0 | 3.0 | 0.00 | 0.03 | 0.03 | 77 | 1015.1 |
| 20260906011549 | 79 | 121 | 5.0 | 6.0 | 0.00 | 0.03 | 0.03 | 77 | 1015.1 |
| 20260906011049 | 79 | 121 | 3.0 | 5.0 | 0.00 | 0.03 | 0.03 | 76 | 1015.1 |
| 20260906010544 | 80 | 143 | 4.0 | 5.0 | 0.00 | 0.03 | 0.03 | 75 | 1015.1 |
| 20260906010041 | 80 | 133 | 4.0 | 5.0 | 0.00 | 0.03 | 0.03 | 75 | 1015.1 |
| 20260906005540 | 80 | 142 | 3.0 | 3.0 | 0.00 | 0.03 | 0.03 | 74 | 1015.1 |
| 20260906005039 | 80 | 159 | 8.0 | 9.0 | 0.00 | 0.03 | 0.03 | 74 | 1015.1 |
| 20260906004538 | 81 | 139 | 4.0 | 6.0 | 0.00 | 0.03 | 0.03 | 73 | 1015.1 |
| 20260906004033 | 81 | 168 | 6.0 | 8.0 | 0.00 | 0.03 | 0.03 | 72 | 1015.1 |
| 20260906003529 | 82 | 142 | 4.0 | 5.0 | 0.00 | 0.03 | 0.03 | 71 | 1015.1 |
| 20260906003025 | 82 | 167 | 7.0 | 8.0 | 0.00 | 0.03 | 0.03 | 71 | 1015.1 |
| 20260906002525 | 82 | 173 | 5.0 | 6.0 | 0.00 | 0.03 | 0.03 | 70 | 1015.1 |
| 20260906002019 | 82 | 146 | 5.0 | 6.0 | 0.00 | 0.03 | 0.03 | 69 | 1015.1 |
| 20260906001516 | 83 | 148 | 5.0 | 6.0 | 0.00 | 0.03 | 0.03 | 68 | 1014.7 |
| 20260906001009 | 83 | 165 | 7.0 | 8.0 | 0.00 | 0.03 | 0.03 | 67 | 1015.1 |
| 20260906000506 | 83 | 146 | 6.0 | 7.0 | 0.00 | 0.03 | 0.03 | 67 | 1015.1 |
| 20260906000000 | 83 | 128 | 7.0 | 8.0 | 0.00 | 0.03 | 0.03 | 66 | 1015.1 |
| 20260905235500 | 84 | 134 | 7.0 | 9.0 | 0.00 | 0.03 | 0.03 | 65 | 1014.7 |
| 20260905234955 | 84 | 152 | 6.0 | 7.0 | 0.00 | 0.03 | 0.03 | 65 | 1015.1 |
| 20260905234451 | 84 | 119 | 5.0 | 7.0 | 0.00 | 0.03 | 0.03 | 64 | 1014.7 |
| 20260905233950 | 84 | 165 | 8.0 | 9.0 | 0.00 | 0.03 | 0.03 | 64 | 1015.1 |
| 20260905233446 | 84 | 140 | 5.0 | 6.0 | 0.00 | 0.03 | 0.03 | 64 | 1014.7 |
| 20260905232944 | 84 | 121 | 9.0 | 11.0 | 0.00 | 0.03 | 0.03 | 63 | 1014.7 |
| 20260905232441 | 84 | 141 | 10.0 | 11.0 | 0.00 | 0.03 | 0.03 | 64 | 1014.7 |
| 20260905231936 | 84 | 138 | 10.0 | 13.0 | 0.00 | 0.03 | 0.03 | 65 | 1014.7 |
| 20260905231432 | 84 | 121 | 12.0 | 15.0 | 0.00 | 0.03 | 0.03 | 65 | 1014.7 |
| 20260905230928 | 84 | 139 | 9.0 | 11.0 | 0.00 | 0.03 | 0.03 | 66 | 1014.7 |
| 20260905230427 | 84 | 144 | 10.0 | 14.0 | 0.00 | 0.03 | 0.03 | 66 | 1014.7 |
| 20260905225925 | 84 | 134 | 10.0 | 13.0 | 0.00 | 0.03 | 0.03 | 66 | 1014.7 |
| 20260905225420 | 84 | 178 | 10.0 | 11.0 | 0.00 | 0.03 | 0.03 | 65 | 1014.7 |
| 20260905224915 | 84 | 133 | 9.0 | 14.0 | 0.00 | 0.03 | 0.03 | 65 | 1014.7 |
| 20260905224411 | 84 | 138 | 6.0 | 8.0 | 0.00 | 0.03 | 0.03 | 70 | 1014.7 |
| 20260905223911 | 84 | 99 | 7.0 | 8.0 | 0.00 | 0.03 | 0.03 | 70 | 1014.7 |
| 20260905223409 | 84 | 166 | 9.0 | 10.0 | 0.00 | 0.03 | 0.03 | 69 | 1014.7 |
| 20260905222909 | 84 | 184 | 11.0 | 14.0 | 0.00 | 0.03 | 0.03 | 69 | 1014.7 |
| 20260905222408 | 84 | 124 | 11.0 | 14.0 | 0.00 | 0.03 | 0.03 | 68 | 1014.7 |
| 20260905221904 | 84 | 126 | 10.0 | 14.0 | 0.00 | 0.03 | 0.03 | 68 | 1014.7 |
| 20260905221401 | 84 | 127 | 9.0 | 11.0 | 0.00 | 0.03 | 0.03 | 67 | 1014.7 |
| 20260905220856 | 84 | 151 | 8.0 | 10.0 | 0.00 | 0.03 | 0.03 | 66 | 1014.7 |
| 20260905220352 | 85 | 118 | 9.0 | 10.0 | 0.00 | 0.03 | 0.03 | 64 | 1014.7 |
| 20260905215851 | 85 | 111 | 11.0 | 15.0 | 0.00 | 0.03 | 0.03 | 64 | 1014.7 |
| 20260905215347 | 86 | 139 | 11.0 | 13.0 | 0.00 | 0.03 | 0.03 | 65 | 1014.4 |
| 20260905214843 | 85 | 116 | 10.0 | 11.0 | 0.00 | 0.03 | 0.03 | 66 | 1014.4 |
| 20260905214339 | 85 | 116 | 7.0 | 9.0 | 0.00 | 0.03 | 0.03 | 66 | 1014.4 |
| 20260905213839 | 85 | 109 | 12.0 | 14.0 | 0.00 | 0.03 | 0.03 | 66 | 1014.4 |
| 20260905213336 | 85 | 117 | 11.0 | 14.0 | 0.00 | 0.03 | 0.03 | 69 | 1014.4 |
| 20260905212836 | 85 | 146 | 7.0 | 10.0 | 0.00 | 0.03 | 0.03 | 68 | 1014.4 |
| 20260905212330 | 85 | 109 | 5.0 | 7.0 | 0.00 | 0.03 | 0.03 | 67 | 1014.4 |
| 20260905211830 | 85 | 147 | 9.0 | 10.0 | 0.00 | 0.03 | 0.03 | 68 | 1014.4 |
| 20260905211326 | 85 | 134 | 9.0 | 13.0 | 0.00 | 0.03 | 0.03 | 68 | 1014.4 |
| 20260905210822 | 85 | 113 | 13.0 | 16.0 | 0.00 | 0.03 | 0.03 | 67 | 1014.4 |
| 20260905210321 | 86 | 127 | 7.0 | 8.0 | 0.00 | 0.03 | 0.03 | 67 | 1014.4 |
| 20260905205820 | 85 | 103 | 5.0 | 8.0 | 0.00 | 0.03 | 0.03 | 68 | 1014.4 |
| 20260905205315 | 86 | 101 | 9.0 | 11.0 | 0.00 | 0.03 | 0.03 | 67 | 1014.4 |
| 20260905204815 | 86 | 123 | 22.0 | 25.0 | 0.00 | 0.03 | 0.03 | 66 | 1014.4 |
| 20260905204311 | 85 | 120 | 6.0 | 7.0 | 0.00 | 0.03 | 0.03 | 67 | 1014.4 |
| 20260905203810 | 86 | 91 | 8.0 | 9.0 | 0.00 | 0.03 | 0.03 | 66 | 1014.4 |
| 20260905203306 | 86 | 117 | 8.0 | 9.0 | 0.00 | 0.03 | 0.03 | 65 | 1014.4 |
| 20260905202801 | 85 | 122 | 5.0 | 6.0 | 0.00 | 0.03 | 0.03 | 66 | 1014.4 |
| 20260905202255 | 85 | 135 | 8.0 | 9.0 | 0.00 | 0.03 | 0.03 | 66 | 1014.4 |
| 20260905201751 | 86 | 128 | 12.0 | 13.0 | 0.00 | 0.03 | 0.03 | 66 | 1014.4 |
| 20260905201246 | 86 | 123 | 5.0 | 7.0 | 0.00 | 0.03 | 0.03 | 62 | 1014.4 |
| 20260905200741 | 86 | 134 | 9.0 | 10.0 | 0.00 | 0.03 | 0.03 | 64 | 1014.4 |
| 20260905200237 | 86 | 113 | 12.0 | 16.0 | 0.00 | 0.03 | 0.03 | 62 | 1014.4 |
| 20260905195735 | 87 | 114 | 11.0 | 11.0 | 0.00 | 0.03 | 0.03 | 62 | 1014.4 |
| 20260905195230 | 86 | 169 | 5.0 | 10.0 | 0.00 | 0.03 | 0.03 | 64 | 1014.4 |
| 20260905194726 | 86 | 136 | 7.0 | 9.0 | 0.00 | 0.03 | 0.03 | 64 | 1014.4 |
| 20260905194226 | 86 | 124 | 11.0 | 21.0 | 0.00 | 0.03 | 0.03 | 61 | 1014.0 |
| 20260905193725 | 86 | 154 | 9.0 | 11.0 | 0.00 | 0.03 | 0.03 | 64 | 1014.0 |
| 20260905193220 | 86 | 175 | 14.0 | 20.0 | 0.00 | 0.03 | 0.03 | 61 | 1014.0 |
| 20260905192716 | 86 | 114 | 8.0 | 10.0 | 0.00 | 0.03 | 0.03 | 63 | 1014.0 |
| 20260905192212 | 86 | 127 | 6.0 | 8.0 | 0.00 | 0.03 | 0.03 | 62 | 1014.4 |
| 20260905191711 | 86 | 115 | 8.0 | 9.0 | 0.00 | 0.03 | 0.03 | 63 | 1014.4 |
| 20260905191209 | 86 | 144 | 10.0 | 11.0 | 0.00 | 0.03 | 0.03 | 63 | 1014.4 |
| 20260905190708 | 85 | 128 | 8.0 | 9.0 | 0.00 | 0.03 | 0.03 | 64 | 1014.4 |
| 20260905190207 | 85 | 151 | 10.0 | 11.0 | 0.00 | 0.03 | 0.03 | 64 | 1014.4 |
| 20260905185706 | 84 | 142 | 7.0 | 8.0 | 0.00 | 0.03 | 0.03 | 65 | 1014.4 |